{"data":{"norad_id":68725,"intl_designator":"2026-081AC","name":"STARLINK-37275","alt_names":[],"object_type":"PAYLOAD","status":"ACTIVE","operator":null,"country":"US","launch_date":"2026-04-14","launch_site_code":"AFETR","launch_vehicle":null,"mission":null,"orbit_class":"UNKNOWN","rcs_meters":null,"size_class":null,"mass_kg":null,"dimensions":null,"purposes":["comms"],"wikipedia_slug":null,"has_3d_model":false,"image_url":null,"decayed_at":null,"tle_current":{"epoch":"2026-05-25T03:09:03.596832Z","epoch_age_seconds":64521,"freshness":"FRESH","line1":"1 68725U 26081AC  26145.13129163  .00032857  00000+0  59565-3 0  9996","line2":"2 68725  53.1585  39.9502 0000909  95.6224 264.4888 15.49341894  6432","mean_motion":15.49341894,"eccentricity":9.09e-5,"inclination_deg":53.1585,"raan_deg":39.9502,"arg_perigee_deg":95.6224,"mean_anomaly_deg":264.4888,"bstar":0.00059565,"rev_number":643,"period_min":92.942687832593,"perigee_km":418.03225114049,"apogee_km":419.26790703146,"semimajor_km":6796.787079086,"source":"CELESTRAK","updated_at":"2026-05-25T13:38:22.003589Z"}}}